Location: Newark
(48.1500°N, 2.9667°W)
Time: 00:57:10
(UTC+00:00)

ISS - Visible Passes

Search period start: 10 December 2019 00:00
Search period end: 20 December 2019 00:00
Orbit: 411 x 421 km, 51.6° (Epoch: 10 December)

Date Brightness Start Highest point End Pass type
(mag) Time Alt. Az. Time Alt. Az. Time Alt. Az.
10 Dec -2.4 17:24:04 10° WNW 17:27:15 40° SSW 17:30:25 10° SE visible
11 Dec -0.5 18:13:41 10° WSW 18:15:01 12° SW 18:16:21 10° SSW visible
12 Dec -0.7 17:24:19 10° W 17:26:44 19° SW 17:29:09 10° S visible
